Flag for Germany Past Weather in Buchholz in der Nordheide, Lower Saxony, Germany — Yesterday and Last 2 Weeks

Now
32 °F

Passing clouds.


Feels Like: 27 °F
Forecast: 24 / 33 °F
Wind: 5 mph from Southeast

Location: Hamburg-Fuhlsbuettel

Current Time: Jan 22, 2017 at 5:38:21 pm

Latest Report: Jan 22, 2017 at 5:20 pm


Visibility: 4 mi

Pressure: 30.30 "Hg

Humidity: 93%

Dew Point: 30 °F

Location of Buchholz in der NordheideLocation

Past Weather in Buchholz in der Nordheide — Graph

°F

Buchholz in der Nordheide Temperature Yesterday

Maximum temperature yesterday: 39 °F (at 1:50 pm)
Minimum temperature yesterday: 32 °F (at 1:50 am)
Average temperature yesterday: 36 °F

High & Low Weather Summary for the Past Weeks

 TemperatureHumidityPressure
High45 °F (Jan 11, 4:20 pm)100% (Jan 7, 5:20 pm)30.72 "Hg (Jan 7, 5:20 pm)
Low18 °F (Jan 16, 4:50 am)65% (Jan 19, 1:50 pm)29.06 "Hg (Jan 13, 4:50 am)
Average33 °F91%30.13 "Hg
* Reported Jan 7 4:20 pm — Jan 22 4:20 pm, Buchholz in der Nordheide, Weather by CustomWeather, © 2017

Note: Actual official high and low records may vary slightly from our data, if they occured in-between our weather recording intervals... More about our weather records

Advertising

Buchholz in der Nordheide Weather History for the Previous 24 Hours

Scroll right to see more
 ConditionsComfort  
Time TempWeatherWind HumidityBarometerVisibility
4:20 pm
Sun, Jan 22
34 °FPartly sunny.3 mph87%30.30 "Hg5 mi
3:50 pm34 °FPartly sunny.6 mph93%30.33 "Hg5 mi
3:20 pm34 °FPartly sunny.8 mph93%30.33 "Hg5 mi
2:50 pm34 °FPartly sunny.3 mph93%30.33 "Hg5 mi
2:20 pm34 °FPartly sunny.7 mph93%30.33 "Hg5 mi
1:50 pm34 °FPartly sunny.8 mph93%30.33 "Hg5 mi
1:20 pm34 °FPartly sunny.6 mph93%30.33 "Hg5 mi
12:50 pm34 °FPartly sunny.6 mph93%30.36 "Hg5 mi
12:20 pm34 °FPartly sunny.7 mph93%30.36 "Hg6 mi
11:50 am34 °FPartly sunny.7 mph93%30.36 "Hg6 mi
11:20 am34 °FPartly sunny.8 mph93%30.39 "Hg5 mi
10:50 am34 °FBroken clouds.8 mph93%30.39 "Hg5 mi
10:20 am32 °FLow clouds.7 mph100%30.39 "Hg4 mi
9:50 am34 °FLow clouds.9 mph93%30.39 "Hg4 mi
9:20 am32 °FLow clouds.9 mph100%30.39 "Hg4 mi
8:50 am34 °FLow clouds.9 mph93%30.39 "Hg4 mi
8:20 am34 °FLow clouds.8 mph93%30.39 "Hg5 mi
7:50 am34 °FLow clouds.8 mph93%30.39 "HgN/A
7:20 am34 °FLow clouds.8 mph93%30.39 "HgN/A
6:50 am34 °FLow clouds.9 mph93%30.39 "HgN/A
6:20 am34 °FLow clouds.8 mph93%30.39 "HgN/A
5:50 am34 °FLow clouds.9 mph93%30.39 "HgN/A
5:20 am36 °FPassing clouds.9 mph87%30.39 "HgN/A
4:50 am36 °FPassing clouds.8 mph87%30.39 "HgN/A
4:20 am36 °FPassing clouds.12 mph87%30.39 "HgN/A
3:50 am36 °FPassing clouds.10 mph87%30.39 "HgN/A
3:20 am36 °FPassing clouds.9 mph93%30.42 "HgN/A
2:50 am36 °FPassing clouds.7 mph93%30.42 "HgN/A
2:20 am37 °FPassing clouds.8 mph87%30.42 "HgN/A
1:50 am37 °FPassing clouds.7 mph87%30.42 "HgN/A
1:20 am37 °FPassing clouds.6 mph87%30.42 "HgN/A
12:50 am37 °FPassing clouds.6 mph93%30.42 "HgN/A
12:20 am37 °FPassing clouds.5 mph93%30.42 "HgN/A
11:50 pm
Sat, Jan 21
37 °FPassing clouds.6 mph93%30.42 "HgN/A
11:20 pm37 °FPassing clouds.5 mph93%30.42 "HgN/A
10:50 pm37 °FPassing clouds.3 mph93%30.45 "HgN/A
10:20 pm37 °FPassing clouds.3 mph93%30.45 "HgN/A
9:50 pm37 °FPassing clouds.2 mph93%30.45 "Hg5 mi
9:20 pm37 °FPassing clouds.No wind93%30.45 "Hg4 mi
8:50 pm36 °FPassing clouds.No wind93%30.45 "Hg4 mi
8:20 pm37 °FPassing clouds.No wind93%30.45 "Hg4 mi
7:50 pm37 °FPassing clouds.1 mph93%30.45 "Hg4 mi
7:20 pm37 °FPassing clouds.3 mph93%30.45 "Hg4 mi
6:50 pm37 °FPassing clouds.2 mph93%30.45 "Hg4 mi
6:20 pm37 °FPassing clouds.2 mph93%30.45 "Hg4 mi
5:50 pm37 °FPassing clouds.2 mph93%30.45 "Hg4 mi
5:20 pm37 °FPassing clouds.2 mph93%30.45 "Hg5 mi
Weather by CustomWeather, © 2017

See weather overviewHow to use our weather pages